WC0AA Weather Reports


time (UTC)temp
F
wind
direction
speed
knots
gust
knots
rain 1hr
in
rain 24hr
in
rain mn
in
humidity
%
barometer
mb
20260906181004 94 171 0.0 0.0 0.00 0.00 0.00 57 1015.3
20260906180005 92 184 0.0 5.2 0.00 0.00 0.00 58 1015.3
20260906175004 93 177 0.0 0.0 0.00 0.00 0.00 59 1015.5
20260906174004 92 222 0.0 0.0 0.00 0.00 0.00 60 1015.6
20260906173005 92 222 0.0 0.0 0.00 0.00 0.00 59 1015.9
20260906172004 93 233 0.0 0.0 0.00 0.00 0.00 59 1016.0
20260906171004 90 140 0.0 0.0 0.00 0.00 0.00 66 1016.0
20260906170004 90 248 0.0 0.0 0.00 0.00 0.00 66 1016.2
20260906165004 89 180 0.0 0.0 0.00 0.00 0.00 68 1016.4
20260906164004 88 225 0.0 0.0 0.00 0.00 0.00 68 1016.4
20260906163004 88 225 0.0 0.0 0.00 0.00 0.00 68 1016.3
20260906162005 87 112 0.0 0.0 0.00 0.00 0.00 69 1016.3
20260906161004 87 135 0.0 0.0 0.00 0.00 0.00 69 1016.3
20260906160004 88 129 0.0 5.2 0.00 0.00 0.00 69 1016.3
20260906155004 88 161 0.0 0.0 0.00 0.00 0.00 68 1016.1
20260906154004 88 186 0.0 0.0 0.00 0.00 0.00 69 1016.1
20260906153004 87 104 0.0 5.2 0.00 0.00 0.00 69 1016.0
20260906152004 87 163 1.7 2.6 0.00 0.00 0.00 72 1016.0
20260906151004 85 120 0.0 0.0 0.00 0.00 0.00 75 1016.0
20260906150004 83 202 0.0 0.0 0.00 0.00 0.00 80 1016.0
20260906145004 83 202 0.0 0.0 0.00 0.00 0.00 80 1015.9
20260906144004 83 140 0.0 0.0 0.00 0.00 0.00 80 1015.8
20260906143004 82 202 0.0 0.0 0.00 0.00 0.00 83 1015.9
20260906140004 80 180 0.0 0.0 0.00 0.00 0.00 83 1016.1
20260906135004 80 202 0.0 0.0 0.00 0.00 0.00 84 1016.0
20260906134004 81 202 0.0 0.0 0.00 0.00 0.00 83 1015.8
20260906133005 81 66 0.0 2.6 0.00 0.00 0.00 80 1015.8
20260906132004 80 125 0.0 0.0 0.00 0.00 0.00 80 1015.7
20260906131004 78 202 0.0 0.0 0.00 0.00 0.00 86 1015.7
20260906130004 77 197 0.0 0.0 0.00 0.00 0.00 87 1015.6
20260906125004 76 58 0.0 0.0 0.00 0.00 0.00 89 1015.4
20260906124004 73 105 0.0 0.0 0.00 0.00 0.00 95 1015.2
20260906123005 72 270 0.0 0.0 0.00 0.00 0.00 96 1015.1
20260906122005 71 248 0.0 0.0 0.00 0.00 0.00 96 1014.9
20260906121004 71 248 0.0 0.0 0.00 0.00 0.00 96 1014.8
20260906120004 71 112 0.0 0.0 0.00 0.00 0.00 96 1014.7
20260906115004 71 187 0.0 0.0 0.00 0.00 0.00 96 1014.7
20260906114004 71 248 0.0 0.0 0.00 0.00 0.00 96 1014.6
20260906112004 71 190 0.0 0.0 0.00 0.00 0.00 95 1014.6
20260906110004 72 202 0.0 0.0 0.00 0.00 0.00 95 1014.6
20260906104004 71 22 0.0 0.0 0.00 0.00 0.00 96 1014.5
20260906103004 71 65 0.0 0.0 0.00 0.00 0.00 96 1014.5
20260906102005 71 225 0.0 0.0 0.00 0.00 0.00 96 1014.5
20260906095004 72 180 0.0 0.0 0.00 0.00 0.00 95 1014.4
20260906094005 72 112 0.0 0.0 0.00 0.00 0.00 95 1014.5
20260906093004 72 112 0.0 0.0 0.00 0.00 0.00 95 1014.4
20260906091004 72 225 0.0 0.0 0.00 0.00 0.00 94 1014.3
20260906085004 72 225 0.0 0.0 0.00 0.00 0.00 93 1014.4
20260906084004 73 225 0.0 0.0 0.00 0.00 0.00 93 1014.4
20260906083004 73 225 0.0 0.0 0.00 0.00 0.00 92 1014.2
20260906082004 73 225 0.0 0.0 0.00 0.00 0.00 92 1014.1
20260906075005 74 225 0.0 0.0 0.00 0.00 0.00 91 1014.1
20260906074005 74 217 0.0 0.0 0.00 0.00 0.00 91 1014.1
20260906073004 74 80 0.0 0.0 0.00 0.00 0.00 91 1014.1
20260906072004 74 197 0.0 0.0 0.00 0.00 0.00 91 1014.2
20260906071004 74 22 0.0 0.0 0.00 0.00 0.00 91 1014.2
20260906070004 74 344 0.0 0.0 0.00 0.00 0.00 91 1014.2
20260906065004 74 270 0.0 0.0 0.00 0.00 0.00 90 1014.2
20260906064005 75 270 0.0 0.0 0.00 0.00 0.00 89 1014.4
20260906063004 76 215 0.0 0.0 0.00 0.00 0.00 88 1014.3
20260906062004 75 225 0.0 0.0 0.00 0.00 0.00 89 1014.4
20260906061004 75 183 0.0 0.0 0.00 0.00 0.00 88 1014.4
20260906060004 76 225 0.0 0.0 0.00 0.00 0.00 87 1014.4
20260906055004 77 223 0.0 0.0 0.00 0.00 0.00 86 1014.4
20260906054004 76 233 0.0 0.0 0.00 0.00 0.00 88 1014.3
20260906053004 77 202 0.0 0.0 0.00 0.00 0.00 87 1014.3
20260906052004 76 204 0.0 0.0 0.00 0.00 0.00 88 1014.4
20260906050005 76 240 0.0 0.0 0.00 0.00 0.00 89 1014.3
20260906045004 76 45 0.0 0.0 0.00 0.00 0.00 88 1014.3
20260906044004 76 315 0.0 0.0 0.00 0.00 0.00 87 1014.2
20260906043004 77 158 0.0 0.0 0.00 0.00 0.00 86 1014.1
20260906041004 77 256 0.0 0.0 0.00 0.00 0.00 86 1014.1
20260906035004 78 240 0.0 0.0 0.00 0.00 0.00 84 1014.0
20260906033005 80 183 0.0 0.9 0.00 0.00 0.00 82 1013.7
20260906032004 80 50 0.9 1.7 0.00 0.00 0.00 82 1013.7
20260906031004 80 235 0.0 0.0 0.00 0.00 0.00 82 1013.6
20260906030004 79 219 0.0 0.0 0.00 0.00 0.00 82 1013.4
20260906025004 80 202 0.0 0.9 0.00 0.00 0.00 80 1013.5
20260906023004 81 180 0.0 0.0 0.00 0.00 0.00 78 1013.0
20260906022004 82 169 0.0 0.0 0.00 0.00 0.00 77 1012.9
20260906021004 83 180 0.0 0.0 0.00 0.00 0.00 75 1012.9
20260906015004 83 202 0.0 0.0 0.00 0.00 0.00 73 1012.7
20260906012004 86 180 0.0 0.0 0.00 0.00 0.00 69 1012.3
20260906011004 87 180 0.0 0.0 0.00 0.00 0.00 65 1012.4
20260906010004 88 155 0.0 0.0 0.00 0.00 0.00 62 1012.4
20260906005006 90 140 0.0 0.0 0.00 0.00 0.00 60 1012.5
20260906004004 91 152 0.0 0.0 0.00 0.00 0.00 58 1012.5
20260906003005 93 197 0.0 0.0 0.00 0.00 0.00 55 1012.4
20260906002004 92 112 0.0 0.0 0.00 0.00 0.00 56 1012.5
20260906001005 92 141 0.0 0.0 0.00 0.00 0.00 55 1012.4
20260905235004 94 203 0.0 0.0 0.00 0.00 0.00 53 1012.3
20260905234004 94 161 0.9 2.6 0.00 0.00 0.00 52 1012.4
20260905232004 96 158 0.0 2.6 0.00 0.00 0.00 51 1012.4
20260905231004 95 198 2.6 5.2 0.00 0.00 0.00 52 1012.4
20260905230004 96 169 0.9 5.2 0.00 0.00 0.00 50 1012.3
20260905225005 96 180 0.9 6.1 0.00 0.00 0.00 51 1012.3
20260905223004 97 186 4.3 8.7 0.00 0.00 0.00 49 1012.4
20260905222004 98 162 2.6 5.2 0.00 0.00 0.00 48 1012.4
20260905220004 98 150 1.7 7.0 0.00 0.00 0.00 47 1012.4
20260905215005 98 200 2.6 7.0 0.00 0.00 0.00 48 1012.2
20260905213004 99 137 0.0 5.2 0.00 0.00 0.00 46 1012.6
20260905212004 99 180 2.6 7.0 0.00 0.00 0.00 45 1012.8
20260905211004 100 142 0.9 6.1 0.00 0.00 0.00 45 1012.9
20260905210005 99 145 4.3 8.7 0.00 0.00 0.00 45 1013.1
20260905205004 101 180 0.9 7.0 0.00 0.00 0.00 43 1013.2
20260905204004 102 176 0.0 7.0 0.00 0.00 0.00 43 1013.4
20260905202004 101 175 0.0 6.1 0.00 0.00 0.00 44 1013.6
20260905201004 101 191 1.7 7.0 0.00 0.00 0.00 44 1013.7
20260905200005 101 195 2.6 8.7 0.00 0.00 0.00 44 1013.8
20260905195004 101 187 1.7 7.8 0.00 0.00 0.00 45 1013.8
20260905194004 100 180 0.0 8.7 0.00 0.00 0.00 45 1014.0
20260905193004 101 141 2.6 5.2 0.00 0.00 0.00 45 1014.0
20260905192004 100 130 1.7 7.0 0.00 0.00 0.00 45 1014.2
20260905191004 97 165 0.0 2.6 0.00 0.00 0.00 50 1014.2
20260905190004 98 218 0.9 2.6 0.00 0.00 0.00 48 1014.4
20260905185004 99 109 0.9 5.2 0.00 0.00 0.00 47 1014.5
20260905184005 100 254 0.0 2.6 0.00 0.00 0.00 46 1014.5
20260905183005 99 204 0.0 2.6 0.00 0.00 0.00 47 1014.5